KB4ID Weather Reports


Display with metric or nautical units.
time (UTC)temp
F
wind
direction
speed
MPH
gust
MPH
rain 1hr
in
rain 24hr
in
rain mn
in
humidity
%
barometer
mb
20181212141406 31 130 0.0 0.0 0.00 0.40 0.00 97 1023.7
20181212140406 30 130 0.0 0.0 0.00 0.40 0.00 98 1023.3
20181212135406 29 130 0.0 0.0 0.00 0.40 0.00 98 1023.7
20181212134406 28 130 0.0 0.0 0.00 0.40 0.00 98 1023.7
20181212133406 28 130 0.0 0.0 0.00 0.40 0.00 98 1023.7
20181212131405 27 130 0.0 0.0 0.00 0.40 0.00 98 1023.3
20181212130404 27 130 0.0 0.0 0.00 0.40 0.00 97 1023.3
20181212125406 26 130 0.0 0.0 0.00 0.40 0.00 97 1023.0
20181212122404 26 130 0.0 0.0 0.00 0.40 0.00 97 1023.0
20181212120405 26 130 0.0 0.0 0.00 0.40 0.00 97 1022.6
20181212115405 26 130 0.0 0.0 0.00 0.40 0.00 98 1022.6
20181212114405 26 130 0.0 0.0 0.00 0.40 0.00 98 1022.3
20181212113406 26 130 0.0 0.0 0.00 0.40 0.00 97 1022.6
20181212111404 26 130 0.0 0.0 0.00 0.40 0.00 97 1022.6
20181212110405 26 130 0.0 0.0 0.00 0.40 0.00 97 1022.0
20181212105404 26 130 0.0 0.0 0.00 0.40 0.00 97 1022.0
20181212104405 26 130 0.0 0.0 0.00 0.40 0.00 97 1022.0
20181212102405 26 130 0.0 0.0 0.00 0.40 0.00 97 1021.6
20181212101406 25 130 0.0 0.0 0.00 0.40 0.00 97 1021.6
20181212100404 25 130 0.0 0.0 0.00 0.40 0.00 97 1022.0
20181212095404 25 130 0.0 0.0 0.00 0.40 0.00 97 1021.6
20181212094406 25 130 0.0 0.0 0.00 0.40 0.00 97 1021.6
20181212093405 25 130 0.0 0.0 0.00 0.40 0.00 97 1021.3
20181212092406 25 130 0.0 0.0 0.00 0.40 0.00 97 1021.6
20181212091406 25 130 0.0 0.0 0.00 0.40 0.00 97 1021.3
20181212090405 25 130 0.0 0.0 0.00 0.40 0.00 97 1021.3
20181212085405 25 130 0.0 0.0 0.00 0.40 0.00 96 1021.3
20181212083406 25 130 0.0 0.0 0.00 0.40 0.00 96 1021.3
20181212075404 26 130 0.0 0.0 0.00 0.40 0.00 96 1021.3
20181212074404 26 130 0.0 0.0 0.00 0.40 0.00 96 1021.3
20181212072405 26 130 0.0 0.0 0.00 0.40 0.00 96 1020.6
20181212065406 26 130 0.0 0.0 0.00 0.40 0.00 97 1020.6
20181212064404 26 130 0.0 0.0 0.00 0.40 0.00 97 1020.6
20181212062405 26 130 0.0 0.0 0.00 0.40 0.00 97 1020.3
20181212054404 26 130 0.0 0.0 0.00 0.40 0.00 96 1019.9
20181212052406 27 130 0.0 0.0 0.00 0.40 0.00 96 1019.9
20181212050404 27 130 0.0 0.0 0.00 0.40 0.00 97 1019.9
20181212042406 27 130 0.0 0.0 0.00 0.40 0.40 97 1020.3
20181212041405 27 130 0.0 0.0 0.00 0.40 0.40 97 1019.9
20181212040406 27 130 0.0 0.0 0.00 0.40 0.40 97 1019.9
20181212035406 27 130 0.0 0.0 0.00 0.40 0.40 97 1020.3
20181212034406 27 130 0.0 0.0 0.00 0.40 0.40 97 1019.9
20181212033405 27 130 0.0 0.0 0.00 0.40 0.40 97 1019.9
20181212030406 27 130 0.0 0.0 0.00 0.40 0.40 97 1020.3
20181212023406 28 130 0.0 0.0 0.00 0.40 0.40 97 1019.9
20181212022406 28 130 0.0 0.0 0.00 0.40 0.40 97 1019.6
20181212014405 29 130 0.0 0.0 0.00 0.40 0.40 97 1019.9
20181212013405 29 130 0.0 0.0 0.00 0.40 0.40 97 1019.9
20181212012406 29 130 0.0 0.0 0.00 0.40 0.40 97 1020.3
20181212011406 29 130 0.0 0.0 0.00 0.40 0.40 97 1020.3
20181212010406 29 130 0.0 0.0 0.00 0.40 0.40 97 1020.3
20181212003405 29 130 0.0 0.0 0.00 0.40 0.40 97 1019.9
20181212002405 29 130 0.0 0.0 0.00 0.40 0.40 96 1019.9
20181212001405 29 130 0.0 0.0 0.00 0.40 0.40 96 1019.9
20181212000406 30 130 0.0 0.0 0.00 0.40 0.40 96 1019.6
20181211232406 31 130 0.0 0.0 0.00 0.40 0.40 95 1019.6
20181211225406 31 130 0.0 0.0 0.00 0.40 0.40 95 1019.9
20181211222405 33 130 0.0 0.0 0.01 0.40 0.40 94 1019.9
20181211220406 34 130 0.0 0.0 0.01 0.40 0.40 93 1019.9
20181211215407 34 130 0.0 0.0 0.02 0.40 0.40 92 1019.9
20181211214407 35 130 0.0 0.0 0.02 0.40 0.40 91 1019.6
20181211213407 35 130 0.0 0.0 0.01 0.39 0.39 90 1019.6
20181211212407 36 130 0.0 0.0 0.02 0.40 0.39 89 1019.9
20181211211407 37 130 0.0 0.0 0.03 0.40 0.39 88 1019.9
20181211205407 38 130 0.0 0.0 0.04 0.40 0.38 84 1019.9
20181211204406 39 130 0.0 0.0 0.04 0.40 0.38 83 1019.9
20181211203407 39 130 0.0 0.0 0.05 0.40 0.38 80 1019.9
20181211202406 40 130 0.0 0.0 0.05 0.40 0.37 80 1019.9
20181211200407 39 54 0.0 0.0 0.05 0.39 0.35 82 1019.9
20181211194408 39 54 0.0 0.0 0.06 0.39 0.34 78 1019.9
20181211192407 39 55 0.0 0.0 0.07 0.38 0.32 80 1019.9
20181211191406 39 55 0.0 0.0 0.08 0.39 0.32 75 1019.9
20181211185407 39 55 0.0 0.0 0.09 0.37 0.29 77 1019.9
20181211184407 39 44 0.0 0.0 0.10 0.37 0.28 75 1020.3
20181211182407 39 117 0.0 0.0 0.11 0.34 0.25 78 1020.6
20181211180407 38 351 0.0 0.0 0.12 0.32 0.22 83 1020.6
20181211175412 38 165 0.0 0.0 0.11 0.30 0.20 79 1020.6
20181211172407 37 225 0.0 0.0 0.09 0.24 0.14 85 1020.9
20181211171407 37 225 0.0 0.0 0.09 0.22 0.12 86 1021.3
20181211165407 36 225 0.0 0.0 0.08 0.19 0.09 86 1021.6
20181211164407 36 225 0.0 0.0 0.06 0.17 0.07 86 1021.6
20181211163407 36 225 0.0 0.0 0.05 0.16 0.06 86 1021.6
20181211162407 36 225 0.0 0.0 0.04 0.15 0.05 89 1022.0
20181211161407 35 225 0.0 0.0 0.03 0.13 0.03 91 1022.3
20181211160406 34 225 0.0 0.0 0.02 0.12 0.02 91 1022.6
20181211155406 34 225 0.0 0.0 0.01 0.11 0.01 91 1022.6
20181211154407 33 225 0.0 0.0 0.01 0.11 0.01 92 1022.6
20181211153407 32 225 0.0 0.0 0.01 0.11 0.01 93 1023.0
20181211151407 31 225 0.0 0.0 0.00 0.10 0.00 96 1023.0
20181211143407 28 225 0.0 0.0 0.00 0.10 0.00 98 1023.0